QPF
0.00 0.00 0.00 0.00 0.00 0.00 0.01 0.00 0.01 0.01 0.02 0.02 0.02 0.03 0.03 0.02 0.02 0.03 0.03 0.02 0.02 0.03 0.02 0.02 0.02 0.02 0.02 0.03 0.03 0.03 0.03 0.04 0.05 0.05 0.05 0.06 0.08 0.11 0.12 0.13 0.15 0.13 0.10
0.00 0.00 0.00 0.00 0.00 0.00 0.00 0.00 0.01 0.02 0.02 0.03 0.03 0.03 0.04 0.04 0.04 0.04 0.03 0.01 0.01 0.02 0.02 0.02 0.02 0.01 0.02 0.03 0.02 0.02 0.03 0.04 0.04 0.05 0.05 0.05 0.06 0.07 0.09 0.11 0.10 0.10 0.10
0.00 0.00 0.00 0.00 0.00 0.00 0.00 0.01 0.01 0.01 0.02 0.03 0.05 0.04 0.06 0.06 0.04 0.03 0.02 0.01 0.01 0.01 0.02 0.02 0.02 0.01 0.01 0.02 0.02 0.02 0.02 0.03 0.03 0.03 0.03 0.03 0.05 0.06 0.07 0.09 0.10 0.10 0.09
0.00 0.00 0.00 0.00 0.00 0.00 0.00 0.01 0.01 0.01 0.01 0.02 0.03 0.03 0.05 0.06 0.04 0.03 0.01 0.01 0.01 0.01 0.02 0.02 0.01 0.01 0.02 0.02 0.02 0.02 0.02 0.03 0.03 0.04 0.03 0.03 0.04 0.07 0.08 0.08 0.09 0.09 0.09
0.00 0.00 0.00 0.00 0.00 0.00 0.00 0.00 0.00 0.01 0.01 0.02 0.01 0.02 0.03 0.05 0.06 0.03 0.01 0.01 0.01 0.02 0.01 0.01 0.02 0.01 0.01 0.02 0.02 0.02 0.02 0.02 0.03 0.04 0.04 0.04 0.04 0.07 0.07 0.05 0.06 0.08 0.08
0.00 0.00 0.00 0.00 0.00 0.00 0.00 0.00 0.00 0.00 0.00 0.00 0.01 0.01 0.01 0.03 0.03 0.03 0.01 0.01 0.01 0.02 0.02 0.02 0.02 0.02 0.02 0.02 0.02 0.02 0.03 0.03 0.02 0.03 0.03 0.03 0.03 0.05 0.06 0.07 0.07 0.07 0.07
0.00 0.00 0.00 0.00 0.00 0.00 0.00 0.00 0.00 0.00 0.00 0.00 0.00 0.00 0.00 0.00 0.01 0.02 0.02 0.02 0.02 0.02 0.02 0.02 0.02 0.03 0.03 0.03 0.04 0.03 0.03 0.03 0.03 0.03 0.02 0.02 0.02 0.03 0.05 0.05 0.06 0.05 0.05
0.00 0.00 0.00 0.00 0.00 0.00 0.00 0.00 0.00 0.00 0.00 0.00 0.00 0.00 0.00 0.00 0.01 0.01 0.02 0.03 0.03 0.02 0.02 0.02 0.02 0.03 0.04 0.04 0.03 0.02 0.02 0.02 0.02 0.02 0.02 0.03 0.03 0.04 0.05 0.07 0.08 0.06 0.06
0.00 0.00 0.00 0.00 0.00 0.00 0.00 0.00 0.00 0.00 0.00 0.00 0.00 0.00 0.00 0.01 0.01 0.02 0.03 0.05 0.04 0.03 0.01 0.01 0.02 0.02 0.03 0.05 0.04 0.03 0.02 0.02 0.02 0.02 0.02 0.02 0.03 0.04 0.06 0.07 0.07 0.07 0.07
0.00 0.00 0.00 0.00 0.00 0.00 0.00 0.00 0.00 0.00 0.00 0.00 0.00 0.00 0.00 0.01 0.01 0.03 0.03 0.04 0.04 0.03 0.03 0.02 0.03 0.04 0.04 0.04 0.04 0.04 0.03 0.02 0.02 0.02 0.02 0.02 0.03 0.04 0.05 0.05 0.05 0.05 0.05
0.00 0.00 0.00 0.00 0.00 0.00 0.00 0.00 0.00 0.00 0.00 0.00 0.00 0.00 0.00 0.00 0.00 0.01 0.02 0.02 0.02 0.02 0.02 0.02 0.04 0.06 0.06 0.04 0.04 0.05 0.05 0.03 0.02 0.03 0.02 0.02 0.04 0.05 0.05 0.05 0.07 0.08 0.09
0.00 0.00 0.00 0.00 0.00 0.00 0.00 0.00 0.00 0.00 0.00 0.00 0.00 0.00 0.01 0.00 0.00 0.00 0.01 0.01 0.01 0.01 0.01 0.01 0.02 0.03 0.05 0.05 0.03 0.03 0.05 0.03 0.03 0.04 0.03 0.03 0.04 0.05 0.07 0.07 0.08 0.10 0.11
0.00 0.00 0.00 0.00 0.00 0.00 0.00 0.00 0.00 0.00 0.00 0.00 0.00 0.00 0.00 0.01 0.01 0.01 0.00 0.00 0.00 0.00 0.00 0.00 0.01 0.01 0.02 0.03 0.03 0.02 0.02 0.03 0.05 0.04 0.03 0.04 0.05 0.07 0.09 0.10 0.10 0.10 0.11
0.00 0.00 0.00 0.00 0.00 0.00 0.00 0.00 0.00 0.00 0.00 0.00 0.00 0.00 0.00 0.00 0.01 0.01 0.01 0.01 0.01 0.00 0.00 0.00 0.00 0.00 0.01 0.01 0.01 0.01 0.02 0.02 0.04 0.03 0.03 0.03 0.04 0.06 0.07 0.09 0.10 0.09 0.09
0.00 0.00 0.00 0.00 0.00 0.00 0.00 0.00 0.00 0.00 0.00 0.00 0.00 0.00 0.00 0.00 0.00 0.00 0.00 0.00 0.01 0.01 0.01 0.01 0.01 0.01 0.00 0.00 0.01 0.01 0.01 0.02 0.02 0.02 0.03 0.03 0.03 0.04 0.05 0.06 0.08 0.08 0.08
0.00 0.00 0.00 0.00 0.00 0.00 0.00 0.00 0.00 0.00 0.00 0.00 0.00 0.00 0.00 0.00 0.00 0.00 0.00 0.00 0.00 0.01 0.01 0.01 0.01 0.01 0.01 0.01 0.01 0.01 0.01 0.01 0.01 0.02 0.02 0.03 0.03 0.03 0.03 0.06 0.07 0.06 0.05
0.00 0.00 0.00 0.00 0.00 0.00 0.00 0.00 0.00 0.00 0.00 0.00 0.00 0.00 0.00 0.00 0.00 0.00 0.00 0.00 0.00 0.00 0.00 0.00 0.00 0.01 0.01 0.01 0.01 0.01 0.01 0.01 0.01 0.01 0.01 0.02 0.02 0.02 0.03 0.03 0.04 0.04 0.03
0.00 0.00 0.00 0.00 0.00 0.00 0.00 0.00 0.00 0.00 0.00 0.00 0.00 0.00 0.00 0.00 0.00 0.00 0.00 0.00 0.00 0.00 0.00 0.00 0.00 0.00 0.00 0.00 0.00 0.00 0.01 0.01 0.01 0.01 0.01 0.01 0.02 0.02 0.02 0.02 0.02 0.02 0.03
0.00 0.00 0.00 0.00 0.00 0.00 0.00 0.00 0.00 0.00 0.00 0.00 0.00 0.00 0.00 0.00 0.00 0.00 0.00 0.00 0.00 0.00 0.00 0.00 0.00 0.00 0.00 0.00 0.00 0.00 0.00 0.00 0.01 0.01 0.01 0.01 0.01 0.02 0.02 0.02 0.02 0.03 0.03
0.00 0.00 0.00 0.00 0.00 0.00 0.00 0.00 0.00 0.00 0.00 0.00 0.00 0.00 0.00 0.00 0.00 0.00 0.00 0.00 0.00 0.00 0.00 0.00 0.00 0.00 0.00 0.00 0.00 0.00 0.00 0.00 0.00 0.01 0.01 0.01 0.02 0.02 0.02 0.02 0.02 0.02 0.02
0.00 0.00 0.00 0.00 0.00 0.00 0.00 0.00 0.00 0.00 0.00 0.00 0.00 0.00 0.00 0.00 0.00 0.00 0.00 0.00 0.00 0.00 0.00 0.00 0.00 0.00 0.00 0.00 0.00 0.00 0.00 0.00 0.00 0.01 0.01 0.01 0.02 0.02 0.02 0.01 0.01 0.01 0.02
0.00 0.00 0.00 0.00 0.00 0.00 0.00 0.00 0.00 0.00 0.00 0.00 0.00 0.00 0.00 0.00 0.00 0.00 0.00 0.00 0.00 0.00 0.00 0.00 0.00 0.00 0.00 0.01 0.01 0.01 0.01 0.01 0.01 0.01 0.01 0.01 0.02 0.02 0.02 0.02 0.02 0.01 0.01
0.00 0.00 0.00 0.00 0.00 0.00 0.00 0.00 0.00 0.00 0.00 0.00 0.00 0.00 0.00 0.00 0.00 0.00 0.00 0.00 0.01 0.01 0.01 0.00 0.01 0.01 0.01 0.01 0.01 0.01 0.01 0.01 0.01 0.01 0.01 0.01 0.01 0.02 0.02 0.02 0.02 0.02 0.01
0.00 0.00 0.00 0.00 0.00 0.00 0.00 0.00 0.00 0.00 0.00 0.00 0.00 0.00 0.00 0.00 0.00 0.00 0.00 0.01 0.01 0.01 0.01 0.01 0.01 0.01 0.01 0.01 0.01 0.01 0.02 0.02 0.02 0.01 0.02 0.02 0.02 0.02 0.02 0.02 0.02 0.02 0.02
0.00 0.00 0.00 0.00 0.00 0.00 0.00 0.00 0.00 0.00 0.00 0.00 0.00 0.00 0.00 0.00 0.00 0.00 0.00 0.01 0.01 0.01 0.02 0.02 0.02 0.02 0.02 0.02 0.02 0.02 0.02 0.02 0.02 0.02 0.02 0.02 0.02 0.02 0.02 0.02 0.03 0.03 0.02
0.00 0.00 0.00 0.00 0.00 0.00 0.00 0.00 0.00 0.00 0.00 0.00 0.00 0.00 0.00 0.00 0.00 0.00 0.00 0.01 0.01 0.01 0.02 0.03 0.03 0.03 0.03 0.03 0.03 0.03 0.03 0.02 0.02 0.02 0.02 0.02 0.02 0.03 0.03 0.03 0.03 0.04 0.03
MSLP
1014.11 1014.17 1014.22 1014.26 1014.24 1014.16 1014.03 1013.86 1013.67 1013.49 1013.34 1013.20 1013.08 1012.97 1012.84 1012.68 1012.47 1012.22 1011.94 1011.63 1011.31 1011.00 1010.72 1010.47 1010.26 1010.08 1009.94 1009.84 1009.76 1009.71 1009.67 1009.66 1009.66 1009.67 1009.68 1009.68 1009.68 1009.68 1009.69 1009.73 1009.80 1009.94 1010.15
1014.01 1014.06 1014.10 1014.13 1014.11 1014.04 1013.93 1013.78 1013.63 1013.47 1013.33 1013.21 1013.09 1012.97 1012.83 1012.66 1012.45 1012.20 1011.91 1011.59 1011.27 1010.95 1010.64 1010.36 1010.11 1009.90 1009.72 1009.58 1009.49 1009.43 1009.40 1009.41 1009.43 1009.46 1009.49 1009.51 1009.52 1009.52 1009.52 1009.54 1009.59 1009.70 1009.88
1013.93 1013.98 1014.03 1014.04 1014.02 1013.96 1013.85 1013.72 1013.58 1013.43 1013.30 1013.18 1013.05 1012.93 1012.78 1012.60 1012.39 1012.15 1011.87 1011.57 1011.25 1010.94 1010.63 1010.33 1010.06 1009.81 1009.60 1009.42 1009.29 1009.20 1009.15 1009.15 1009.17 1009.20 1009.24 1009.27 1009.29 1009.30 1009.31 1009.33 1009.39 1009.49 1009.66
1013.87 1013.93 1013.98 1013.99 1013.97 1013.90 1013.79 1013.66 1013.52 1013.38 1013.25 1013.12 1012.99 1012.85 1012.69 1012.51 1012.30 1012.07 1011.81 1011.53 1011.23 1010.93 1010.63 1010.33 1010.04 1009.76 1009.50 1009.27 1009.08 1008.93 1008.83 1008.78 1008.77 1008.78 1008.82 1008.86 1008.90 1008.93 1008.97 1009.03 1009.11 1009.24 1009.42
1013.80 1013.89 1013.94 1013.96 1013.92 1013.84 1013.73 1013.60 1013.46 1013.32 1013.18 1013.04 1012.89 1012.74 1012.57 1012.38 1012.17 1011.95 1011.70 1011.44 1011.17 1010.89 1010.59 1010.29 1009.97 1009.65 1009.33 1009.03 1008.75 1008.52 1008.34 1008.21 1008.14 1008.12 1008.14 1008.19 1008.26 1008.35 1008.45 1008.57 1008.72 1008.90 1009.13
1013.70 1013.82 1013.88 1013.90 1013.86 1013.77 1013.66 1013.53 1013.39 1013.24 1013.09 1012.95 1012.79 1012.62 1012.43 1012.23 1012.01 1011.78 1011.54 1011.29 1011.04 1010.77 1010.47 1010.16 1009.81 1009.43 1009.04 1008.64 1008.27 1007.92 1007.63 1007.42 1007.27 1007.21 1007.21 1007.28 1007.39 1007.55 1007.74 1007.95 1008.20 1008.47 1008.77
1013.55 1013.69 1013.77 1013.78 1013.75 1013.67 1013.56 1013.43 1013.30 1013.15 1013.01 1012.85 1012.68 1012.48 1012.27 1012.05 1011.82 1011.58 1011.33 1011.09 1010.84 1010.57 1010.27 1009.93 1009.54 1009.10 1008.62 1008.12 1007.62 1007.16 1006.76 1006.44 1006.22 1006.11 1006.11 1006.20 1006.37 1006.61 1006.91 1007.24 1007.59 1007.97 1008.35
1013.33 1013.48 1013.58 1013.60 1013.58 1013.51 1013.41 1013.30 1013.19 1013.06 1012.91 1012.75 1012.57 1012.35 1012.12 1011.87 1011.61 1011.35 1011.10 1010.85 1010.59 1010.32 1010.01 1009.64 1009.20 1008.70 1008.14 1007.53 1006.92 1006.34 1005.83 1005.42 1005.13 1004.98 1004.97 1005.10 1005.34 1005.67 1006.07 1006.51 1006.98 1007.46 1007.93
1013.03 1013.20 1013.30 1013.34 1013.33 1013.28 1013.22 1013.14 1013.04 1012.94 1012.81 1012.64 1012.45 1012.22 1011.96 1011.68 1011.40 1011.13 1010.86 1010.61 1010.35 1010.07 1009.74 1009.35 1008.88 1008.32 1007.68 1006.99 1006.29 1005.61 1005.01 1004.52 1004.18 1004.00 1004.00 1004.16 1004.46 1004.87 1005.36 1005.90 1006.47 1007.02 1007.56
1012.65 1012.83 1012.93 1012.99 1013.00 1012.98 1012.95 1012.91 1012.85 1012.77 1012.66 1012.50 1012.30 1012.05 1011.78 1011.48 1011.19 1010.91 1010.64 1010.39 1010.14 1009.86 1009.54 1009.14 1008.64 1008.05 1007.37 1006.62 1005.85 1005.10 1004.44 1003.90 1003.53 1003.34 1003.34 1003.53 1003.88 1004.34 1004.89 1005.49 1006.10 1006.70 1007.26
1012.21 1012.38 1012.49 1012.55 1012.59 1012.61 1012.61 1012.61 1012.58 1012.53 1012.43 1012.28 1012.08 1011.83 1011.55 1011.25 1010.95 1010.67 1010.42 1010.19 1009.96 1009.71 1009.41 1009.03 1008.54 1007.94 1007.24 1006.47 1005.67 1004.90 1004.21 1003.65 1003.27 1003.07 1003.09 1003.29 1003.66 1004.15 1004.71 1005.32 1005.93 1006.51 1007.05
1011.72 1011.87 1011.97 1012.04 1012.10 1012.14 1012.18 1012.20 1012.20 1012.17 1012.09 1011.95 1011.75 1011.50 1011.22 1010.93 1010.65 1010.40 1010.18 1009.99 1009.81 1009.60 1009.35 1009.00 1008.55 1007.98 1007.31 1006.55 1005.76 1005.00 1004.32 1003.77 1003.39 1003.21 1003.23 1003.43 1003.79 1004.27 1004.80 1005.37 1005.93 1006.45 1006.93
1011.20 1011.32 1011.40 1011.47 1011.53 1011.58 1011.64 1011.68 1011.69 1011.67 1011.59 1011.46 1011.26 1011.02 1010.76 1010.49 1010.24 1010.04 1009.87 1009.74 1009.62 1009.48 1009.29 1009.01 1008.62 1008.11 1007.49 1006.78 1006.04 1005.32 1004.68 1004.17 1003.82 1003.65 1003.68 1003.87 1004.20 1004.63 1005.10 1005.59 1006.06 1006.48 1006.86
1010.67 1010.75 1010.80 1010.85 1010.90 1010.96 1011.01 1011.05 1011.07 1011.04 1010.96 1010.82 1010.63 1010.40 1010.15 1009.92 1009.72 1009.56 1009.46 1009.40 1009.36 1009.30 1009.18 1008.98 1008.66 1008.23 1007.68 1007.06 1006.39 1005.74 1005.17 1004.71 1004.40 1004.26 1004.29 1004.47 1004.75 1005.11 1005.51 1005.89 1006.25 1006.57 1006.83
1010.17 1010.20 1010.22 1010.24 1010.27 1010.30 1010.34 1010.37 1010.36 1010.32 1010.22 1010.07 1009.88 1009.66 1009.44 1009.24 1009.09 1008.99 1008.96 1008.97 1009.00 1009.01 1008.97 1008.85 1008.62 1008.26 1007.81 1007.27 1006.69 1006.13 1005.64 1005.25 1004.99 1004.88 1004.92 1005.07 1005.31 1005.61 1005.91 1006.20 1006.45 1006.66 1006.83
1009.74 1009.72 1009.70 1009.69 1009.69 1009.70 1009.71 1009.71 1009.68 1009.61 1009.49 1009.32 1009.13 1008.91 1008.71 1008.55 1008.44 1008.40 1008.42 1008.49 1008.58 1008.66 1008.68 1008.62 1008.46 1008.18 1007.81 1007.36 1006.87 1006.41 1005.99 1005.67 1005.47 1005.39 1005.44 1005.58 1005.78 1006.01 1006.23 1006.43 1006.60 1006.72 1006.82
1009.42 1009.36 1009.31 1009.27 1009.25 1009.24 1009.22 1009.19 1009.13 1009.03 1008.89 1008.71 1008.50 1008.30 1008.12 1007.98 1007.91 1007.90 1007.96 1008.07 1008.19 1008.30 1008.37 1008.35 1008.23 1008.02 1007.71 1007.34 1006.94 1006.55 1006.21 1005.96 1005.80 1005.75 1005.80 1005.92 1006.08 1006.26 1006.42 1006.56 1006.67 1006.74 1006.79
1009.28 1009.20 1009.13 1009.08 1009.04 1009.02 1008.98 1008.93 1008.84 1008.72 1008.56 1008.36 1008.15 1007.95 1007.78 1007.66 1007.61 1007.62 1007.70 1007.82 1007.95 1008.07 1008.14 1008.14 1008.05 1007.86 1007.60 1007.28 1006.94 1006.62 1006.34 1006.13 1006.00 1005.96 1006.00 1006.09 1006.22 1006.35 1006.46 1006.56 1006.62 1006.67 1006.72
1009.34 1009.25 1009.19 1009.16 1009.13 1009.10 1009.07 1009.01 1008.91 1008.77 1008.60 1008.40 1008.19 1007.99 1007.83 1007.72 1007.67 1007.68 1007.75 1007.86 1007.97 1008.07 1008.11 1008.09 1008.00 1007.82 1007.58 1007.29 1006.98 1006.69 1006.44 1006.25 1006.12 1006.07 1006.08 1006.13 1006.21 1006.28 1006.35 1006.41 1006.45 1006.49 1006.55
1009.60 1009.55 1009.53 1009.52 1009.52 1009.52 1009.50 1009.45 1009.36 1009.22 1009.05 1008.86 1008.65 1008.46 1008.30 1008.18 1008.13 1008.12 1008.16 1008.23 1008.30 1008.35 1008.35 1008.30 1008.17 1007.97 1007.72 1007.43 1007.13 1006.85 1006.60 1006.39 1006.25 1006.15 1006.10 1006.09 1006.09 1006.10 1006.10 1006.11 1006.13 1006.16 1006.23
1010.06 1010.06 1010.09 1010.14 1010.19 1010.23 1010.24 1010.21 1010.14 1010.02 1009.86 1009.67 1009.48 1009.29 1009.13 1009.01 1008.94 1008.90 1008.90 1008.92 1008.93 1008.92 1008.86 1008.75 1008.58 1008.34 1008.07 1007.76 1007.44 1007.14 1006.86 1006.62 1006.41 1006.25 1006.11 1006.00 1005.90 1005.82 1005.74 1005.68 1005.66 1005.67 1005.74
1010.63 1010.71 1010.80 1010.91 1011.02 1011.11 1011.16 1011.17 1011.12 1011.03 1010.89 1010.72 1010.53 1010.35 1010.19 1010.07 1009.97 1009.90 1009.86 1009.82 1009.76 1009.69 1009.56 1009.39 1009.16 1008.89 1008.58 1008.24 1007.89 1007.55 1007.22 1006.92 1006.64 1006.38 1006.14 1005.91 1005.69 1005.49 1005.31 1005.16 1005.06 1005.02 1005.06
1011.25 1011.39 1011.56 1011.73 1011.89 1012.03 1012.12 1012.15 1012.14 1012.06 1011.94 1011.79 1011.62 1011.45 1011.30 1011.16 1011.04 1010.94 1010.85 1010.76 1010.65 1010.51 1010.32 1010.09 1009.82 1009.50 1009.15 1008.78 1008.40 1008.02 1007.64 1007.27 1006.91 1006.55 1006.19 1005.84 1005.49 1005.15 1004.85 1004.59 1004.39 1004.26 1004.24
1011.81 1012.01 1012.22 1012.44 1012.65 1012.81 1012.93 1012.99 1012.99 1012.94 1012.83 1012.70 1012.55 1012.39 1012.23 1012.09 1011.96 1011.84 1011.71 1011.58 1011.42 1011.22 1010.99 1010.71 1010.40 1010.05 1009.67 1009.27 1008.86 1008.45 1008.03 1007.60 1007.17 1006.72 1006.26 1005.79 1005.32 1004.86 1004.42 1004.04 1003.73 1003.50 1003.38
1012.23 1012.46 1012.71 1012.96 1013.18 1013.36 1013.48 1013.55 1013.56 1013.51 1013.42 1013.30 1013.17 1013.02 1012.88 1012.74 1012.60 1012.46 1012.31 1012.15 1011.95 1011.72 1011.45 1011.14 1010.79 1010.42 1010.03 1009.62 1009.19 1008.76 1008.32 1007.86 1007.38 1006.87 1006.34 1005.78 1005.21 1004.64 1004.10 1003.59 1003.16 1002.82 1002.59
1012.47 1012.71 1012.97 1013.21 1013.43 1013.60 1013.72 1013.78 1013.78 1013.74 1013.66 1013.55 1013.43 1013.30 1013.18 1013.05 1012.91 1012.77 1012.61 1012.42 1012.20 1011.94 1011.64 1011.31 1010.95 1010.56 1010.16 1009.75 1009.34 1008.91 1008.47 1008.00 1007.51 1006.98 1006.40 1005.80 1005.16 1004.51 1003.88 1003.28 1002.74 1002.29 1001.94
Thickness
5690 5686 5682 5678 5675 5671 5668 5665 5663 5661 5659 5657 5655 5654 5653 5653 5653 5653 5652 5653 5653 5653 5654 5656 5658 5660 5663 5666 5669 5671 5673 5675 5675 5679 5684 5689 5692 5694 5696 5698 5699 5700 5702
5692 5688 5683 5680 5676 5672 5669 5667 5665 5662 5660 5658 5656 5655 5653 5652 5652 5651 5651 5651 5650 5650 5651 5652 5654 5657 5658 5661 5664 5666 5668 5671 5672 5673 5677 5680 5683 5687 5689 5690 5692 5694 5695
5694 5689 5685 5681 5677 5674 5671 5669 5666 5663 5661 5659 5657 5655 5654 5653 5652 5651 5651 5650 5649 5648 5649 5649 5651 5652 5654 5656 5659 5661 5663 5667 5668 5669 5670 5673 5676 5679 5680 5682 5684 5686 5688
5695 5691 5686 5682 5679 5675 5673 5670 5667 5664 5662 5659 5658 5656 5655 5654 5653 5652 5650 5649 5648 5648 5648 5649 5650 5650 5652 5653 5655 5656 5659 5660 5662 5664 5664 5666 5668 5671 5672 5673 5674 5677 5679
5696 5691 5687 5684 5681 5677 5674 5671 5668 5665 5663 5661 5659 5657 5656 5655 5654 5652 5651 5650 5648 5648 5648 5649 5649 5650 5652 5652 5653 5653 5655 5655 5657 5658 5659 5660 5661 5663 5665 5667 5667 5669 5671
5697 5692 5689 5685 5682 5678 5675 5671 5668 5666 5664 5661 5659 5657 5656 5656 5655 5655 5653 5650 5649 5648 5647 5648 5648 5649 5650 5651 5652 5653 5653 5653 5654 5654 5655 5656 5657 5659 5660 5661 5661 5661 5662
5697 5693 5690 5686 5682 5679 5676 5672 5669 5666 5664 5662 5659 5657 5656 5655 5656 5656 5655 5652 5650 5648 5647 5647 5648 5649 5648 5648 5650 5651 5651 5653 5654 5653 5653 5654 5655 5656 5656 5656 5656 5657 5658
5697 5693 5690 5686 5683 5680 5676 5673 5670 5667 5664 5662 5660 5658 5656 5656 5657 5656 5655 5652 5650 5648 5647 5646 5646 5646 5647 5647 5647 5647 5647 5649 5651 5652 5652 5653 5654 5654 5654 5655 5654 5653 5653
5697 5693 5691 5687 5683 5680 5677 5674 5671 5668 5665 5663 5661 5659 5657 5656 5657 5656 5655 5652 5649 5648 5647 5647 5646 5646 5647 5646 5645 5644 5645 5646 5649 5650 5651 5651 5652 5652 5651 5650 5648 5647 5647
5697 5695 5692 5688 5684 5681 5678 5675 5673 5670 5667 5665 5662 5660 5658 5657 5658 5657 5655 5651 5648 5647 5647 5646 5646 5646 5646 5645 5643 5643 5642 5644 5645 5647 5647 5648 5648 5648 5649 5648 5647 5645 5644
5698 5695 5692 5688 5685 5682 5679 5676 5673 5670 5667 5665 5662 5661 5659 5658 5658 5657 5655 5651 5648 5646 5645 5645 5645 5646 5645 5644 5643 5642 5642 5643 5643 5643 5643 5643 5644 5644 5645 5645 5644 5644 5643
5697 5693 5690 5688 5685 5683 5678 5676 5673 5669 5666 5664 5662 5660 5659 5658 5657 5656 5655 5653 5650 5646 5645 5644 5644 5644 5644 5643 5642 5642 5643 5642 5641 5640 5640 5640 5640 5640 5641 5641 5640 5641 5642
5694 5690 5688 5686 5683 5681 5677 5674 5671 5668 5665 5663 5661 5659 5658 5658 5657 5657 5655 5653 5650 5647 5645 5644 5643 5643 5642 5641 5641 5641 5641 5639 5638 5637 5636 5636 5637 5637 5636 5636 5636 5636 5636
5690 5687 5685 5682 5680 5678 5675 5673 5669 5667 5664 5662 5660 5658 5658 5657 5655 5654 5653 5651 5649 5646 5644 5643 5642 5641 5640 5639 5639 5638 5638 5637 5636 5635 5634 5634 5634 5633 5632 5632 5631 5631 5630
5685 5683 5680 5678 5676 5674 5672 5670 5669 5667 5665 5662 5661 5659 5656 5655 5657 5656 5652 5649 5646 5644 5641 5639 5638 5637 5636 5636 5636 5636 5635 5635 5633 5633 5632 5631 5630 5630 5629 5628 5627 5626 5625
5680 5678 5675 5673 5671 5669 5667 5667 5667 5666 5665 5663 5661 5659 5658 5657 5657 5655 5652 5649 5646 5643 5638 5635 5634 5633 5632 5632 5632 5632 5632 5632 5631 5631 5630 5629 5628 5627 5626 5625 5623 5622 5621
5675 5672 5670 5668 5666 5664 5663 5661 5660 5661 5661 5659 5658 5656 5655 5654 5653 5651 5649 5645 5642 5639 5633 5632 5630 5630 5629 5629 5629 5629 5629 5630 5629 5628 5627 5626 5625 5624 5623 5622 5620 5619 5618
5669 5667 5664 5661 5660 5658 5657 5655 5654 5652 5651 5651 5651 5650 5650 5649 5647 5645 5642 5638 5633 5630 5627 5627 5626 5626 5626 5625 5625 5625 5626 5626 5625 5624 5624 5623 5623 5622 5620 5619 5618 5617 5616
5660 5658 5656 5654 5652 5650 5649 5647 5646 5644 5642 5641 5641 5641 5642 5641 5639 5635 5632 5627 5625 5623 5622 5621 5621 5621 5621 5621 5622 5621 5621 5621 5621 5620 5620 5620 5619 5618 5617 5616 5615 5614 5613
5650 5650 5648 5645 5642 5640 5639 5637 5634 5632 5631 5629 5628 5627 5628 5627 5625 5622 5620 5617 5615 5615 5614 5614 5614 5613 5614 5614 5615 5615 5615 5615 5615 5615 5615 5615 5615 5614 5614 5613 5612 5611 5610
5638 5637 5637 5633 5631 5628 5626 5624 5622 5620 5618 5616 5614 5614 5615 5613 5611 5609 5607 5606 5605 5605 5605 5604 5604 5604 5605 5605 5605 5606 5607 5607 5608 5608 5609 5609 5609 5609 5610 5609 5609 5609 5608
5626 5624 5622 5619 5617 5615 5612 5610 5608 5606 5604 5602 5601 5601 5600 5598 5597 5595 5593 5592 5591 5590 5591 5591 5591 5592 5592 5592 5593 5595 5596 5597 5598 5599 5600 5601 5602 5603 5603 5603 5603 5603 5603
5613 5611 5608 5605 5603 5601 5598 5595 5593 5591 5589 5588 5587 5586 5584 5582 5581 5579 5578 5577 5577 5576 5576 5576 5576 5577 5577 5578 5579 5580 5581 5582 5584 5586 5589 5591 5593 5594 5595 5596 5597 5597 5597
5600 5597 5594 5591 5588 5585 5582 5580 5578 5577 5574 5573 5571 5570 5568 5566 5565 5564 5563 5562 5561 5560 5560 5559 5559 5559 5560 5561 5562 5563 5564 5566 5569 5572 5575 5578 5581 5583 5585 5587 5588 5589 5591
5585 5583 5579 5576 5573 5570 5568 5565 5563 5561 5560 5558 5556 5554 5552 5551 5549 5548 5547 5546 5545 5544 5543 5542 5542 5542 5542 5543 5544 5545 5547 5550 5552 5555 5559 5563 5566 5570 5572 5575 5577 5579 5580
5572 5569 5566 5562 5559 5557 5554 5551 5549 5547 5545 5543 5540 5538 5536 5534 5533 5532 5530 5529 5528 5527 5526 5526 5525 5524 5525 5525 5526 5528 5530 5533 5536 5538 5542 5546 5550 5554 5557 5560 5564 5566 5569